Погода в Гяндже

Погода в Гяндже : погода сейчас, прогноз погоды и архив. Всё, что Вы хотите узнать о погоде в Гяндже!

Поиск расширенной информации на нашем сайте:

Другие новости

Новости СМИ2

Главная страница сайта

Новости сайта

03.07.2017

Напоминаем, что на нашем специализированном сайте Метеоцентр.Азия вы можете получить высокодетализированные автоматические прогнозы погоды по пунктам России, СНГ и мира в авиационном формате (включающие направление и скорость ветра, видимость, явления погоды, количество и форму облачности, нижнюю и верхнюю границу облачности).

Рекомендуем: Высказывания Мастеров восточных единоборств.

Погода в Гяндже - сегодня

Время (UTC), дата Ветер
(°,м/с) 
Видим.   Явления Облачность Т
(°С)
Тd
(°С)
f(%) Тe
(°С)
Pmin
(гПа)
dP
(гПа)
Po
(мм)
O2
(г/м3)
Тmin Tmax R s Состояние
почвы
09 19.05.18 090 (В) 20000 м    4/0 верхняя 
[Ci fib]
+26.9 +9.7 34 +28  1016.2  -0.9  736  268           
12 19.05.18 090 (В) 20000 м    8/0 верхняя 
[Ci sp]
+28.2 +8.2 28 +28  1013.9  -2.3  734  267           
15 19.05.18 070 (В) 20000 м    8/0 верхняя 
[Cs]
+26.2 +12.6 43 +31  1013.8  -0.1  734  267           
21 19.05.18 140 (ЮВ) 10 км    8/0 верхняя 
[Cs]
+19.6 +12.3 63 +26  1016.3  0.4  735  274           
00 20.05.18 180 (Ю) 10 км    6/0 средняя 
[Ac As]
+17.6 +12 70 +23  1016  -0.3  735  276           
03 20.05.18 050 (СВ) 20000 м    8/0 верхняя 
[Cs]
+17.8 +13.4 75 +26  1016.4  0.4  735  275           
09 20.05.18 050 (СВ) 10 км    8/0 средняя 
[Ac und]
+25.8 +7 30 +26  1015.4  -1.1  735  269           
12 20.05.18 140 (ЮВ) 10 км    10/10 1000 м 
[Sc]
+25.1 +6.7 31 +25  1014.5  -0.9  734  270           
15 20.05.18 тихо ()   20000 м    6/0 средняя 
[Ac As]
+25.5 +8.5 34 +26  1012.9  -1.6  733  269           
21 20.05.18 290 (З) 10 км    8/0 средняя 
[Ac trans]
+17.5 +13.8 79 +26  1016.4  0.6  735  276           
00 21.05.18 290 (З) 10 км    8/0 средняя 
[Ac trans]
+18.5 +12.4 68 +25  1015.8  -0.6  734  275           
03 21.05.18 270 (З) 20000 м    3/0 средняя 
[Ac As]
+18.4 +13.8 75 +27  1014.8  -1  734  274           
06 21.05.18 290 (З) 20000 м    6/6 1000 м 
[Cu med, cong]
+22.4 +14.8 62 +31  1015.5  0.7  735  271  +18.2    0.8     
09 21.05.18 340 (С) 20000 м    6/6 1000 м 
[Cu med, cong]
+25.5 +11.4 41 +29  1014.7  -0.8  735  269           
12 21.05.18 340 (С) 10 км    8/8 1000 м 
[Sc]
+25.9 +12.4 43 +31  1013  -1.7  734  268           
15 21.05.18 250 (З) 10 км    10/10 1000 м 
[Sc]
+25.7 +12.1 43 +30  1013.6  0.6  734  268           
21 21.05.18 320 (СЗ) 20000 м    6/6 1000 м 
[Cu med, cong]
+21.7 +12.7 57 +27  1015.4  0.2  735  272           
00 22.05.18 320 (СЗ) 20000 м    10/10 1000 м 
[Sc]
+21.3 +13.1 59 +27  1015.8  0.4  735  272           
03 22.05.18 320 (СЗ) 10 км    6/0 верхняя 
[Cc]
+20.2 +13.6 66 +27  1017.4  1.6  736  273           
06 22.05.18 320 (СЗ) 20000 м    5/5 1000 м средняя 
[Cu hum|Ac As]
+24 +14.6 56 +32  1017.9  0.5  737  270  +20.1         
09 22.05.18 110 (В) 20000 м    3/3 1000 м 
[Cu hum]
+28.2 +13.8 41 +35  1017.1  -0.8  737  266           
12 22.05.18 110 (В) 20000 м    8/8 1000 м 
[Cu med, cong]
+29.3 +7.4 25 +29  1015.4  -1.7  735  266           
15 22.05.18 110 (В) 20000 м    8/0 верхняя 
[Cs]
+27.5 +9 31 +28  1015.7  0.3  736  268           
18 22.05.18 110 (В) 10 км    6/0 средняя 
[Ac As]
+25.5 +9 35 +26  1016.6  0.9  736  270    +30.8       
21 22.05.18 110 (В) 10 км    3/0 средняя 
[Ac trans]
+19.9 +12.2 61 +26  1018  1.4  737  274           
Время (UTC), дата Ветер
(°,м/с) 
Видим.   Явления Облачность Т
(°С)
Тd
(°С)
f(%) Тe
(°С)
Pmin
(гПа)
dP
(гПа)
Po
(мм)
O2
(г/м3)
Тmin Tmax R s Состояние
почвы

Для получения пояснительной информации подведите курсор к названию столбца.

ПОГОДА в Гяндже - архив

Всё, что Вы хотите узнать о погоде в Гяндже - удобно и подробно!

Выберите нужную дату (начиная с 1 января 2015* года) и нажмите кнопку "Найти".
Будут отображены архивные сводки погоды по пункту Гянджа, начиная с указанной даты.


Отображать данные в формате CSV (для использования в таблицах Excel)


Внимание! Наш архив погоды предназначен исключительно для личного некоммерческого использования в познавательных целях. Если Вам необходимы официальные справки о состоянии погоды (для производственных, юридических, коммерческих и т.п. целей), обращайтесь в органы Росгидромета.

*Примечание: данная дата относится к архиву по метеостанциям СССР (Россия, СНГ, Балтия).
Архив по метеостанциям Зарубежной Европы и Азии (кроме Китая) хранится 10 дней, по другим регионам земного шара (Китай, Африка, Америка, Австралия, Океания) - 1 день.

Гянджа - район местоположения метеостанции


Название, широта, долгота, высота метеостанции:
Гянджа (город) 40.7°ш. 46.4°д. 311 м над ур. моря [Азербайджан]

Дополнительная информация

В oтличие oт бoльшинства пoгoдных сайтoв мы публикуем пoдрoбную метеoинфoрмацию в детальнoм прoфессиoнальнoм фoрмате.

Характеристики температуры и влажнoсти вoздуха измеряются на высoте 2 м в тени вдали oт зданий и деревьев.
Скoрoсть ветра измеряется на высoте 10 м (на урoвне рoста челoвека скoрoсть ветра ниже в 1.5-2 раза). Если метеoстанция нахoдится в гoрoде или в лесу, тo скoрoсть ветра занижена на 2-4 м/с пo сравнению с oткрытым местoм. Скoрoсть ветра над акватoриями крупных рек и oзёр, а также на вершинах хoлмoв на 2-5 м/с выше, чем в oбычных услoвиях.
Атмoсфернoе давление в разных тoчках местнoсти мoжет значительнo oтличаться oт давления на метеoстанции, в зависимoсти oт услoвий рельефа (при пoдъёме на 10 м давление пoнижается примернo на 1 мм рт.ст.).